Regional Weather Roundup
Issued by NWS

Home | Current Version | Previous Version | Text Only | Print | Product List | Glossary Off
Versions: 1 2 3 4 5 6 7 8 9 10 11 12 13 14 15 16 17 18 19 20 21 22 23 24 25 26 27 28 29 30 31 32 33 34 35 36 37 38 39 40 41 42 43 44 45 46 47 48 49 50

000
ASUS43 KFSD 262302
RWRSD

WEATHER ROUNDUP FOR SOUTH DAKOTA
NATIONAL WEATHER SERVICE SIOUX FALLS SD
600 PM CDT WED APR 26 2017

NOTE: "FAIR" INDICATES FEW OR NO CLOUDS BELOW 12,000 FEET WITH NO
SIGNIFICANT WEATHER AND/OR OBSTRUCTIONS TO VISIBILITY.


SDZ001>005-009-010-012>017-270000-
NORTHWEST AND NORTH CENTRAL SOUTH DAKOTA

CITY           SKY/WX    TMP DP  RH WIND       PRES   REMARKS
BUFFALO          N/A     46  27  47 CALM      29.67F
FAITH            N/A     49  28  44 N12G24    29.71F
MOBRIDGE       MOSUNNY   47  26  44 N15G22    29.71F
$$

SDZ012>016-024>037-041>051-057-063-072>074-270000-
SOUTHWEST AND SOUTH CENTRAL SOUTH DAKOTA

CITY           SKY/WX    TMP DP  RH WIND       PRES   REMARKS
RAPID CTY ARPT SUNNY     38  28  67 N8        29.74F
PIERRE         SUNNY     48  28  46 N16       29.71F
CUSTER         CLOUDY    38  33  82 E6        29.67F
ELLSWORTH AFB  MOSUNNY   38  29  70 N7        29.74
PHILIP         PTSUNNY   46  31  55 NW15      29.74F
PINE RIDGE     SUNNY     46  31  55 N10       29.72S
SPEARFISH      FAIR      36  28  75 NE7       29.73S
WINNER         CLOUDY    48  30  49 NW18      29.70F
$$

SDZ004>011-016>023-039-040-270000-
NORTHEAST SOUTH DAKOTA

CITY           SKY/WX    TMP DP  RH WIND       PRES   REMARKS
ABERDEEN       CLOUDY    31  26  82 N17       29.75S WCI  19
WATERTOWN      CLOUDY    30  24  78 N20       29.67R WCI  17
BROOKINGS      CLOUDY    32  26  78 N18       29.65F WCI  20
SISSETON         N/A     31  26  82 N20       29.69R WCI  19
$$

SDZ017-020-022-023-036>040-048>070-270000-
SOUTHEAST SOUTH DAKOTA

CITY           SKY/WX    TMP DP  RH WIND       PRES   REMARKS
SIOUX FALLS    CLOUDY    36  29  75 NW16G28   29.67S
HURON          CLOUDY    34  27  75 N20G25    29.72F WCI  23
CHAMBERLAIN    PTSUNNY   46  31  56 NW10G16   29.71F
MITCHELL       CLOUDY    38  28  67 N17       29.72S
YANKTON        CLOUDY   N/A N/A N/A NW18      29.69S
$$

ABBREVIATIONS USED IN REMARKS
   TC - TEMPERATURE IN CELSIUS
  WCI - WIND CHILL INDEX
   HX - HEAT INDEX
  VSB - VISIBILITY




USA.gov is the U.S. government's official web portal to all federal, state and local government web resources and services.